sat.trackr.live / text

‹ back to catalog

STARLINK-2251

NORAD 48594 · 2021-041AT

PAYLOAD ACTIVE UNKNOWN

§ Identity

Operator
Country
US
Launch date
2021-05-15
Launch site
AFETR
Launch vehicle
Mass (kg)
RCS (m²)

Purposes: comms

External: N2YO · Heavens-Above · Gunter

§ Orbital elements

Epoch: 2026-09-19T15:30:57.164544Z

Period
94.01 min
Inclination
53.1610°
Eccentricity
0.0001314
Mean motion
15.31717507 rev/d
Perigee alt
469.8 km
Apogee alt
471.6 km
Semi-major
6,848.8 km
B*
6.0294e-5
RAAN
293.2420°
Arg perigee
68.9904°
Mean anomaly
291.1238°
Rev number
29,514

§ Raw data

STARLINK-22511 48594U 21041AT  26262.64649496  .00001507  00000+0  60294-4 0  99912 48594  53.1610 293.2420 0001314  68.9904 291.1238 15.31717507295149

JSON: /api/v1/satellites/48594 · /tle

For live sub-satellite position, see the globe view (requires WebGL).

§ Visibility from observer

Set your observer location to see the next 7 days of passes ≥ 10°. The values pass through the URL so the page stays shareable.

No JS? Fill the form by hand. The geolocation button needs JavaScript.